Terminal Aerodrome Forecast
Issued by NWS Kansas City/Pleasant Hill, MO

Home | Current Version | Previous Version | Text Only | Print | Product List | Glossary On
Versions: 1 2 3 4 5 6 7 8 9 10 11 12 13 14 15 16 17 18 19 20
000
FTUS43 KEAX 190500
TAFMCI
TAF
KMCI 190521Z 1906/2006 VRB03KT 1/2SM FG OVC002
     FM191700 04005KT P6SM OVC008
     FM200300 VRB03KT 2SM BR OVC004=

USA.gov is the U.S. government's official web portal to all federal, state and local government web resources and services.